Location: Pensacola
(30.4142°N, 87.2155°W)
Time: 14:40:08
(UTC-06:00)

YAOGAN-30 D - Visible Passes

Search period start: 26 February 2024 00:00
Search period end: 07 March 2024 00:00
Orbit: 583 x 586 km, 35.0° (Epoch: 26 February)

Date Brightness Start Highest point End Pass type
(mag) Time Alt. Az. Time Alt. Az. Time Alt. Az.
26 Feb ? 18:45:29 10° WNW 18:49:51 64° NNE 18:52:08 27° E visible
26 Feb ? 20:27:30 10° W 20:28:27 16° W 20:28:27 16° W visible
27 Feb ? 18:50:30 10° WNW 18:54:54 85° NNE 18:57:06 29° ESE visible
27 Feb ? 20:32:51 10° W 20:33:26 13° W 20:33:26 13° W visible
28 Feb ? 18:55:32 10° WNW 18:59:53 68° SSW 19:02:08 27° SE visible
29 Feb ? 19:00:38 10° W 19:04:49 44° SSW 19:07:16 22° SE visible
01 Mar ? 19:05:55 10° W 19:09:40 28° SSW 19:12:29 15° SSE visible
02 Mar ? 19:11:34 10° WSW 19:14:28 17° SW 19:17:22 10° S visible
